Amarillo, TX

3:52 PM CST on December 10, 2019 (GMT -0600)
Amarillo International

Weather History for KAMA - June, 2019

Change the Weather History Date:

Wednesday, June 12, 2019

  Actual Average Record
Temperature  
Mean Temperature 67 °F 74 °F  
Max Temperature 77 °F 87 °F 105 °F (1924)
Min Temperature 57 °F 60 °F 48 °F (1903)
Degree Days  
Heating Degree Days 0 0  
Month to date heating degree days 4 5  
Since 1 June heating degree days 4 5  
Since 1 July heating degree days 4106 4176  
Cooling Degree Days 2 9  
Month to date cooling degree days 53 90  
Year to date cooling degree days 115 215  
Since 1 June cooling degree days 53 90  
Growing Degree Days 17 (Base 50)    
Moisture  
Dew Point 49 °F    
Average Humidity 59    
Maximum Humidity 84    
Minimum Humidity 33    
Precipitation  
Precipitation 0.00 in 0.12 in 1.95 in (1989)
Month to date precipitation 2.50 1.39  
Year to date precipitation 10.28 7.75  
Snow  
Snow 0.00 in 0.00 in T in (1989)
Month to date snowfall 0.0 0.0  
Since 1 June snowfall 0.0 0.0  
Since 1 July snowfall 8.1 17.8  
Snow Depth 0.00 in    
Sea Level Pressure  
Sea Level Pressure 30.06 in    
Wind  
Wind Speed 13 mph (NNE)    
Max Wind Speed 26 mph    
Max Gust Speed 35 mph    
Visibility 10 miles    
Events      
T = Trace of Precipitation, MM = Missing Value Source: NWS Daily Summary

Daily Weather History Graph

Daily Weather History Graph

Search for Another Location

Airport or City:

Astronomy

Jun. 12, 2019 Rise Set
Actual Time 6:31 AM CDT 9:01 PM CDT
Civil Twilight 6:01 AM CDT 9:31 PM CDT
Nautical Twilight 5:25 AM CDT 10:08 PM CDT
Astronomical Twilight 4:44 AM CDT 10:48 PM CDT
Moon 4:22 PM CDT (6/12) 3:34 AM CDT (6/12)
Length of Visible Light 15h 29m
Length of Day
14h 30m
Waxing Gibbous, 77% of the Moon is Illuminated
Jun 12
Waxing Gibbous
Jun 17
Full
Jun 25
Last Quarter
Jul 2
New
Jul 9
First Quarter

Hourly Weather History & Observations

Time (CDT) Temp. Dew Point Humidity Pressure Visibility Wind Dir Wind Speed Gust Speed Precip Events Conditions
12:53 AM 64.0 °F 59.0 °F 84% 29.95 in 10.0 mi North 13.8 mph 18.4 mph N/A   Clear
1:53 AM 64.9 °F 54.0 °F 68% 29.96 in 10.0 mi NNE 23.0 mph 29.9 mph N/A   Clear
2:53 AM 64.0 °F 52.0 °F 65% 29.98 in 10.0 mi NNE 17.3 mph 28.8 mph N/A   Mostly Cloudy
3:53 AM 61.0 °F 48.9 °F 64% 29.99 in 10.0 mi North 13.8 mph - N/A   Clear
4:53 AM 57.9 °F 48.9 °F 72% 29.99 in 10.0 mi North 11.5 mph - N/A   Clear
5:53 AM 57.9 °F 48.9 °F 72% 30.01 in 10.0 mi North 10.4 mph - N/A   Mostly Cloudy
6:53 AM 57.9 °F 50.0 °F 75% 30.04 in 10.0 mi North 12.7 mph - N/A   Mostly Cloudy
7:53 AM 59.0 °F 50.0 °F 72% 30.07 in 10.0 mi North 12.7 mph - N/A   Mostly Cloudy
8:53 AM 62.1 °F 46.9 °F 58% 30.11 in 10.0 mi North 19.6 mph - N/A   Scattered Clouds
9:53 AM 66.0 °F 48.0 °F 52% 30.13 in 10.0 mi North 16.1 mph - N/A   Partly Cloudy
10:53 AM 68.0 °F 46.9 °F 47% 30.14 in 10.0 mi North 18.4 mph 26.5 mph N/A   Clear
11:53 AM 71.1 °F 48.9 °F 45% 30.13 in 10.0 mi North 13.8 mph - N/A   Clear
12:53 PM 72.0 °F 46.0 °F 40% 30.13 in 10.0 mi NNE 15.0 mph - N/A   Clear
1:53 PM 73.9 °F 48.0 °F 40% 30.11 in 10.0 mi NNE 15.0 mph 19.6 mph N/A   Clear
2:53 PM 75.9 °F 48.0 °F 37% 30.09 in 10.0 mi North 15.0 mph 21.9 mph N/A   Clear
3:53 PM 75.9 °F 48.0 °F 37% 30.08 in 10.0 mi North 13.8 mph 20.7 mph N/A   Clear
4:53 PM 77.0 °F 46.9 °F 34% 30.07 in 10.0 mi North 13.8 mph - N/A   Clear
5:53 PM 75.9 °F 46.9 °F 36% 30.06 in 10.0 mi North 11.5 mph - N/A   Clear
6:53 PM 75.0 °F 45.0 °F 34% 30.06 in 10.0 mi NNE 9.2 mph - N/A   Clear
7:53 PM 73.0 °F 46.0 °F 38% 30.06 in 10.0 mi NNE 8.1 mph - N/A   Clear
8:53 PM 68.0 °F 46.0 °F 45% 30.06 in 10.0 mi East 6.9 mph - N/A   Clear
9:53 PM 64.9 °F 46.0 °F 50% 30.06 in 10.0 mi East 6.9 mph - N/A   Clear
10:53 PM 61.0 °F 46.9 °F 60% 30.10 in 10.0 mi ESE 8.1 mph - N/A   Clear
11:53 PM 57.9 °F 48.0 °F 70% 30.11 in 10.0 mi ESE 9.2 mph - N/A   Clear